Location: Kawakawa
(35.3830°S, 174.0670°E)
Time: 18:43:00
(UTC+12:00)

Cosmos 1743 Rocket - Pass Details

Date: 15 August 2020
Orbit: 603 x 634 km, 82.6° (Epoch: 25 September)

Event Time Altitude Azimuth Distance (km) Brightness Sun altitude
Rises 18:50:58 0° 191° (SSW) 2,906 7.1 -12.6°
Reaches altitude 10° 18:53:13 10° 194° (SSW) 1,997 6.2 -13.0°
Maximum altitude 18:57:35 61° 274° (W) 707 4.1 -13.9°
Drops below altitude 10° 19:01:56 10° 354° (N) 1,987 6.3 -14.8°
Sets 19:04:10 0° 357° (N) 2,889 7.1 -15.2°
